TimeEST,TemperatureF,Dew PointF,Humidity,Sea Level PressureIn,VisibilityMPH,Wind Direction,Wind SpeedMPH,Gust SpeedMPH,PrecipitationIn,Events,Conditions,WindDirDegrees,DateUTC
12:53 AM,36.0,26.1,67,30.27,10.0,NE,5.8,-,0.00,,Clear,40,2012-12-06 05:53:00
1:53 AM,35.1,25.0,67,30.28,9.0,NNE,3.5,-,0.00,,Clear,30,2012-12-06 06:53:00
2:53 AM,32.0,24.1,73,30.29,10.0,NE,5.8,-,0.00,,Clear,50,2012-12-06 07:53:00
3:53 AM,30.0,23.0,75,30.29,10.0,NNE,4.6,-,0.00,,Clear,30,2012-12-06 08:53:00
4:53 AM,30.9,21.9,69,30.31,10.0,Calm,Calm,-,N/A,,Clear,0,2012-12-06 09:53:00
5:53 AM,30.0,21.0,69,30.33,10.0,NE,3.5,-,N/A,,Clear,40,2012-12-06 10:53:00
6:53 AM,28.9,21.0,72,30.34,10.0,Calm,Calm,-,N/A,,Clear,0,2012-12-06 11:53:00
7:53 AM,28.9,23.0,78,30.37,10.0,Calm,Calm,-,N/A,,Clear,0,2012-12-06 12:53:00
8:53 AM,34.0,24.1,67,30.38,10.0,Calm,Calm,-,N/A,,Clear,0,2012-12-06 13:53:00
9:53 AM,36.0,23.0,59,30.38,10.0,East,5.8,-,N/A,,Clear,80,2012-12-06 14:53:00
10:53 AM,39.0,21.9,50,30.38,10.0,Variable,4.6,-,0.00,,Clear,0,2012-12-06 15:53:00
11:53 AM,39.9,21.9,49,30.34,10.0,NE,3.5,-,N/A,,Clear,40,2012-12-06 16:53:00
12:53 PM,41.0,23.0,49,30.30,10.0,Calm,Calm,-,N/A,,Clear,0,2012-12-06 17:53:00
1:53 PM,43.0,23.0,45,30.28,10.0,Calm,Calm,-,N/A,,Clear,0,2012-12-06 18:53:00
2:53 PM,45.0,24.1,44,30.27,10.0,Calm,Calm,-,N/A,,Clear,0,2012-12-06 19:53:00
3:53 PM,43.0,25.0,49,30.26,10.0,South,6.9,-,N/A,,Clear,180,2012-12-06 20:53:00
4:53 PM,39.0,24.1,55,30.26,10.0,South,6.9,-,N/A,,Clear,190,2012-12-06 21:53:00
5:53 PM,39.0,25.0,57,30.26,10.0,South,9.2,-,N/A,,Clear,190,2012-12-06 22:53:00
6:53 PM,39.9,25.0,55,30.27,10.0,Calm,Calm,-,N/A,,Clear,0,2012-12-06 23:53:00
8:53 PM,36.0,26.1,67,30.25,10.0,Calm,Calm,-,N/A,,Clear,0,2012-12-07 01:53:00
9:53 PM,34.0,26.1,73,30.25,10.0,Calm,Calm,-,N/A,,Scattered Clouds,0,2012-12-07 02:53:00
10:53 PM,36.0,28.0,73,30.24,10.0,Calm,Calm,-,N/A,,Overcast,0,2012-12-07 03:53:00
11:53 PM,36.0,28.0,73,30.22,10.0,Calm,Calm,-,N/A,,Mostly Cloudy,0,2012-12-07 04:53:00